Terminal Aerodrome Forecast
Issued by NWS

Home | Current Version | Previous Version | Text Only | Print | Product List | Glossary On
Versions: 1 2 3 4 5 6 7 8 9 10 11 12 13 14 15 16 17 18 19 20 21 22 23 24 25 26 27 28 29 30 31 32 33
000
FTPA31 PHFO 202300
TAFJRF
TAF
PHJR 202332Z 2100/2124 09009KT P6SM SCT030 BKN045
     FM210500 VRB03KT P6SM FEW035
     FM212000 13008KT P6SM FEW030 SCT045=

USA.gov is the U.S. government's official web portal to all federal, state and local government web resources and services.